Cloud_Cover
100 100 100 100 100 89 97 100 100 87 5 3 5 23 13 99 100 2 2 0 0 2 0 1 49 7 83 26 5 0 0 5 5 5 5 97 9 6 5 40 48 100 98 100 100 18 8 93 99
95 98 100 99 52 39 41 100 73 11 2 1 21 6 87 75 100 95 34 1 0 2 0 0 2 22 32 6 5 5 0 4 5 5 8 12 5 5 48 36 92 53 5 17 5 92 100 82 99
7 49 97 70 36 58 5 99 24 100 36 1 11 44 74 80 98 65 0 0 5 0 0 0 0 4 66 36 4 39 1 3 5 9 39 90 11 7 5 5 10 26 53 98 5 91 79 96 98
5 5 8 36 4 7 13 7 0 9 12 5 92 78 62 100 71 31 6 0 1 5 1 0 0 5 48 64 17 16 0 7 1 6 5 5 5 5 5 5 5 5 5 6 5 5 29 38 22
22 4 62 5 46 53 8 24 0 4 4 13 72 38 47 100 73 16 42 13 0 41 4 2 0 5 5 29 26 91 5 16 2 28 5 5 5 18 5 4 10 5 5 23 44 97 5 6 55
5 5 17 5 34 74 34 2 5 2 4 66 80 5 6 93 66 70 40 33 11 22 35 4 2 4 5 34 46 5 5 6 4 72 6 2 14 5 6 5 12 10 3 5 5 12 51 66 36
82 5 49 50 100 6 31 3 4 14 70 27 6 10 82 83 51 100 50 43 33 6 6 81 6 0 5 5 6 9 5 5 10 4 0 4 8 5 95 14 12 56 5 5 5 5 60 90 98
99 29 4 1 0 40 87 2 0 1 68 47 1 2 39 100 100 97 76 70 47 46 30 21 62 5 0 5 6 8 95 39 5 3 0 0 5 5 96 91 100 99 62 29 100 100 90 14 89
30 78 43 0 0 4 5 59 14 5 5 7 5 5 59 100 100 95 50 62 28 43 37 12 26 5 0 5 5 16 97 5 5 3 3 0 2 5 69 74 96 75 72 100 93 22 30 17 100
18 5 8 3 2 47 25 18 3 5 5 29 4 5 16 97 44 57 67 46 80 74 58 24 24 26 8 5 17 64 91 38 5 5 2 4 2 5 5 23 80 50 49 100 100 100 5 83 58
5 22 12 88 0 11 5 5 5 4 58 19 5 66 90 97 43 15 47 100 3 55 50 38 29 29 6 5 7 55 16 33 20 5 7 55 5 27 71 33 10 11 70 100 41 86 100 100 97
5 9 11 13 5 33 5 5 5 5 1 0 3 21 98 97 84 32 15 9 10 58 52 51 27 34 14 9 16 14 21 11 24 28 11 96 10 96 36 63 40 44 5 8 18 9 100 99 100
0 2 4 16 2 38 36 2 5 11 60 1 0 0 10 79 100 96 93 7 11 53 52 51 49 43 16 15 24 21 16 13 5 5 24 11 5 56 5 5 5 99 39 63 68 29 28 100 100
0 7 9 0 5 76 5 5 5 4 64 7 4 0 0 6 61 33 67 6 6 56 37 32 42 35 24 17 14 30 16 3 6 5 5 7 5 5 3 5 5 25 43 5 18 56 98 94 100
0 0 0 5 5 8 3 0 5 3 5 5 5 5 1 0 0 27 4 19 5 7 0 2 14 23 14 20 13 89 5 5 1 0 5 5 5 5 5 5 34 5 12 30 20 67 84 100 100
0 2 5 20 3 3 2 1 0 1 3 2 5 5 2 0 4 10 65 6 50 2 9 5 1 6 0 6 14 88 9 5 5 5 0 0 4 5 5 9 77 30 99 100 81 90 84 97 100
0 6 17 61 5 4 3 0 5 5 3 0 2 5 1 3 5 0 4 0 4 22 86 92 89 5 2 0 6 5 56 5 5 5 5 5 2 1 4 4 35 28 50 77 95 87 100 100 100
0 2 94 80 22 6 5 1 0 4 0 3 5 4 1 5 5 5 1 2 0 3 69 100 63 82 45 3 0 4 6 5 28 5 5 5 4 9 5 5 5 5 38 85 96 32 69 100 100
0 0 52 56 26 1 5 3 0 4 5 31 99 7 3 1 30 5 2 0 0 0 1 100 100 52 72 5 0 0 0 5 4 5 5 10 100 100 100 46 9 5 6 7 57 57 100 100 100
0 0 58 83 95 1 1 0 0 0 4 5 26 8 0 0 1 5 4 0 0 0 4 2 8 100 92 7 4 0 0 2 3 4 0 5 10 77 98 67 74 32 5 12 26 74 87 86 100
0 0 37 5 6 5 0 0 5 0 0 23 2 1 1 4 1 3 1 0 0 0 0 0 4 55 100 54 1 4 12 0 4 0 0 4 5 67 28 5 44 5 5 5 9 5 11 66 96
0 0 4 5 3 5 0 0 0 0 0 0 5 10 41 5 1 0 0 0 0 0 0 0 0 2 68 100 38 39 6 0 0 5 1 0 5 10 5 5 5 5 5 5 5 35 5 32 92
0 0 0 0 0 0 0 0 0 4 0 0 0 3 10 5 3 5 3 0 0 0 0 0 0 0 4 5 20 50 5 30 0 0 2 5 0 0 4 85 5 3 5 5 77 48 13 34 25
0 0 0 0 0 0 0 0 0 1 0 0 0 0 8 5 5 13 5 0 0 0 0 0 0 0 0 0 4 3 5 26 5 5 0 2 0 0 2 5 5 5 5 5 6 22 35 100 77
0 0 0 0 0 0 0 0 0 46 5 2 0 0 4 41 5 40 21 0 0 0 0 0 0 0 0 0 0 0 0 5 84 34 5 4 2 5 3 5 23 50 23 5 48 43 7 26 34
0 0 0 0 0 0 0 0 0 2 2 6 0 0 1 6 6 5 4 0 0 0 0 0 0 0 0 0 0 0 0 0 5 9 6 31 3 0 5 4 5 6 45 47 98 94 97 47 78
0 0 0 0 0 0 0 0 0 0 5 5 3 0 1 0 5 6 91 1 0 0 0 0 0 0 0 0 0 5 5 16 0 0 8 99 15 4 11 2 6 28 89 46 99 100 96 31 35
0 0 0 0 0 0 0 0 0 0 0 0 0 0 0 5 9 5 49 17 3 0 0 0 0 0 0 0 0 0 4 41 5 1 5 90 100 49 71 48 96 100 96 100 100 100 91 93 84
0 0 0 0 0 0 0 0 0 0 0 0 0 0 21 45 2 0 3 5 4 0 3 0 0 0 0 0 0 0 0 0 3 1 94 100 96 100 100 100 85 100 100 100 100 100 100 100 66
0 0 0 0 0 0 0 0 0 0 0 0 0 0 0 92 4 4 58 76 26 5 0 0 0 0 0 0 0 0 0 0 11 1 0 37 94 80 8 44 100 100 100 100 100 100 100 100 100